Regional Weather Roundup
Issued by NWS Mobile, AL

Home | Current Version | Previous Version | Text Only | Print | Product List | Glossary On
Versions: 1 2 3 4 5 6 7 8 9 10 11 12 13 14 15 16 17 18 19 20 21 22 23 24 25 26 27 28 29 30 31 32 33 34 35 36 37 38 39 40 41 42 43 44 45 46 47 48 49 50
602
ASUS44 KMOB 290812
RWRMOB
REGIONAL WEATHER ROUNDUP
NATIONAL WEATHER SERVICE MOBILE AL
300 AM CDT MON AUG 29 2016

NOTE: "FAIR" INDICATES FEW OR NO CLOUDS BELOW 12,000 FEET WITH NO
      SIGNIFICANT WEATHER AND/OR OBSTRUCTIONS TO VISIBILITY.

  * THESE STATIONS ARE PART OF THE UNIVERSITY OF SOUTH ALABAMA
    MESONET AND ARE NOT UNDER NWS OR FAA QUALITY CONTROL.

ALZ061>064-290900-
COASTAL ALABAMA

CITY           SKY/WX    TMP DP  RH WIND       PRES   REMARKS
MOBILE REG APT CLEAR     74  72  93 CALM      29.98S
BROOKLEY FIELD CLOUDY    76  75  97 N5        29.98F
USA CAMPUS*    NOT AVBL
DOG RIVER*     NOT AVBL


CITY           SKY/WX    TMP DP  RH WIND       PRES   REMARKS
MOUNT VERNON*  NOT AVBL
SARALAND*      NOT AVBL
BAY MINETTE*   NOT AVBL
LOXLEY*        NOT AVBL
ROBERTSDALE*   NOT AVBL
FAIRHOPE*      NOT AVBL
ELBERTA*       NOT AVBL
FOLEY*         NOT AVBL
GRAND BAY*     NOT AVBL
DAUPHIN ISLND* NOT AVBL
BON SCOUR NWR* NOT AVBL
GULF SHORES    MOCLDY    74  74 100 NE8       29.97S

$$

ALZ051>060-290900-
INTERIOR SOUTHWEST AND SOUTH CENTRAL ALABAMA

CITY           SKY/WX    TMP DP  RH WIND       PRES   REMARKS
GREENVILLE     PTCLDY    74  69  85 CALM      30.01R
EVERGREEN      PTCLDY    74  72  93 CALM      30.00S
CASTLEBERRY*   NOT AVBL
ATMORE*        NOT AVBL
DIXIE*         NOT AVBL
ANDALUSIA/OPP  PTCLDY    78  70  76 E3        30.01R
ANDALUSIA*     NOT AVBL
FLORALA APT    PTCLDY    74  71  91 E5        30.02R
FLORALA*       NOT AVBL

$$

FLZ001>006-290900-
WESTERN FLORIDA PANHANDLE

CITY           SKY/WX    TMP DP  RH WIND       PRES   REMARKS
PENSACOLA      CLOUDY    79  73  82 N5        29.96S
NAS PENSACOLA  CLOUDY    79  74  84 N6        29.96S
MILTON         CLEAR     75  75 100 N5        29.98R
WHTNG S FIELD  PTCLDY    80  76  87 NE7       29.98R


CITY           SKY/WX    TMP DP  RH WIND       PRES   REMARKS
WALNUT HILL*   NOT AVBL
JAY*           NOT AVBL
DUKE FIELD     CLEAR     75  73  94 NE1       29.97S
CRESTVIEW      CLEAR     75  72  90 NE3       30.00R
VALPARAISO     PTCLDY    78  73  83 E7        29.97R
DESTIN         CLEAR     82  75  79 E8        29.97R

$$

MSZ076-079-290900-
INTERIOR SOUTHEAST MISSISSIPPI

CITY           SKY/WX    TMP DP  RH WIND       PRES   REMARKS
LEAKESVILLE*   NOT AVBL
AGRICOLA*      NOT AVBL

$$

MARINE OBSERVATIONS

STATION/POSITION TIME  TEMP    WIND        PRES    WAVE
                       AIR SEA DIR/SP/G            HT/PER
                 (UTC) (F)     (DEG/KT/KT) (MB)    (FT/S)
PASCAGOULA       0700   76      20/  5/  6 1014.3F
PETIT BOIS ISLND 0700   79      40/ 10/ 12 1014.9F
GRAND BAY        0600   75      10/  5     1016.0S
KATRINA CUT      0700   79      40/ 11     1015.6S
CEDAR POINT      0700   77      10/  5     1014.6
E DAUPHIN ISLAND 0700   81      40/ 10/ 11 1014.4F
MIDDLE BAY LIGHT 0700   81      20/ 11     1014.6F
USCG MOBILE BAY  0700   76 86  330/  2/  2 1015.3F
STATE DOCKS      0700   78 88              1014.7F
MEAHER PARK      0700   76      10/  4     1014.6F
WEEKS BAY        0600   75                   N/A
FORT MORGAN      0700   81      50/  9/ 10 1014.1F
12 S ORANGE BCH  0750   82 85   30/ 10/ 12 1014.1F   2/ 6
PENSACOLA BAY    0700   81 86  360/  3/  4 1014.8F
64 S DAUPHIN ISL 0700   85 85   70/ 14/ 16 1013.3F
67 S FORT MORGAN 0730   83      70/ 17     1013.2F

$$

SELECTED LOCATIONS ACROSS THE REGION

CITY           SKY/WX    TMP DP  RH WIND       PRES   REMARKS
NEW ORLEANS    CLOUDY    82  74  76 E6        29.94F
GULFPORT       CLEAR     75  74  96 N3        29.96S
PASCAGOULA AP  CLEAR     74  74 100 N3        29.97S
PASCAGOULA*    NOT AVBL
HATTIESBURG    CLEAR     75  72  90 CALM      29.99S
LAUREL         CLEAR     73  72  94 N5        30.00F
MERIDIAN       CLEAR     74  70  87 N5        30.01S
JACKSON        CLEAR     75  71  87 CALM      30.01S
MONTGOMERY     CLEAR     79  69  71 E8        30.02R
TROY           CLEAR     75  70  84 E5        30.03S
KINSTON*       NOT AVBL
GENEVA*        NOT AVBL
ASHFORD*       NOT AVBL
DOTHAN         CLEAR     76  73  91 E5        30.05S
PANAMA CITY    CLEAR     77  73  87 NE6       29.96S

$$





USA.gov is the U.S. government's official web portal to all federal, state and local government web resources and services.